This is the latest recevied weather packets stored in our database for station/object AA4OM-2. If no packets are shown the sender has not sent any weather packets the latest 10 day(s).
| Time | Temp. | Humidity | Pressure | Rain* | Wind** | Luminosity | Snow |
|---|---|---|---|---|---|---|---|
| 1777955518 | 19.44° C | 53% | 1010.9 hPa | 0 mm | - | 0 W/m² | - |
| 1777955214 | 20° C | 53% | 1010.9 hPa | 0 mm | - | 0 W/m² | - |
| 1777954912 | 20° C | 52% | 1011 hPa | 0 mm | - | 0 W/m² | - |
| 1777954608 | 20° C | 52% | 1011 hPa | 0 mm | - | 0 W/m² | - |
| 1777954306 | 20.56° C | 51% | 1010.9 hPa | 0 mm | - | 0 W/m² | - |
| 1777954002 | 20.56° C | 50% | 1011 hPa | 0 mm | - | 0 W/m² | - |
| 1777953390 | 20.56° C | 49% | 1011.2 hPa | 0 mm | - | 0 W/m² | - |
| 1777943699 | 21.67° C | 47% | 1009.3 hPa | 0 mm | - | 0 W/m² | - |
| 1777943394 | 22.22° C | 47% | 1009.6 hPa | 0 mm | - | 0 W/m² | - |
| 1777942786 | 22.22° C | 45% | 1009.7 hPa | 0 mm | - | 0 W/m² | - |
| 1777941271 | 23.33° C | 43% | 1009.7 hPa | 0 mm | - | 7 W/m² | - |
| 1777940967 | 23.89° C | 42% | 1009.6 hPa | 0 mm | - | 10 W/m² | - |
| 1777940362 | 23.89° C | 41% | 1009.8 hPa | 0 mm | - | 17 W/m² | - |
| 1777938544 | 25° C | 40% | 1010 hPa | 0 mm | - | 38 W/m² | - |
| 1777937938 | 25.56° C | 38% | 1009.9 hPa | 0 mm | - | 67 W/m² | - |
| 1777934604 | 26.67° C | 37% | 1010.3 hPa | 0 mm | - | 194 W/m² | - |
| 1777934301 | 26.67° C | 36% | 1010.3 hPa | 0 mm | - | 258 W/m² | - |
| 1777933996 | 26.67° C | 37% | 1010.2 hPa | 0 mm | - | 253 W/m² | - |
| 1777933390 | 26.67° C | 37% | 1010.4 hPa | 0 mm | - | 301 W/m² | - |
| 1777933088 | 26.67° C | 36% | 1010.3 hPa | 0 mm | - | 331 W/m² | - |
| 1777932481 | 26.67° C | 36% | 1010.3 hPa | 0 mm | - | 346 W/m² | - |
| 1777931876 | 26.67° C | 37% | 1010.1 hPa | 0 mm | - | 389 W/m² | - |
| 1777931572 | 26.67° C | 35% | 1010.3 hPa | 0 mm | - | 398 W/m² | - |
| 1777931268 | 27.22° C | 35% | 1010.2 hPa | 0 mm | - | 411 W/m² | - |
| 1777930661 | 26.67° C | 35% | 1010 hPa | 0 mm | - | 462 W/m² | - |
* Rain latest hour (hover to see other rain measurements)
** Current wind speed in m/s (hover to see current wind gust speed)